Regional Weather Roundup
Issued by NWS

Home | Current Version | Previous Version | Graphics & Text | Print | Product List | Glossary On
Versions: 1 2 3 4 5 6 7 8 9 10 11 12 13 14 15 16 17 18 19 20 21 22 23 24 25 26 27
000
ASUS45 KCYS 212110
RWRWY

WYOMING REGIONAL WEATHER ROUNDUP
NATIONAL WEATHER SERVICE CHEYENNE WY
300 PM MDT SAT APR 21 2018

NOTE:  "FAIR" INDICATES FEW OR NO CLOUDS BELOW 12,000 FEET
WITH NO SIGNIFICANT WEATHER AND/OR OBSTRUCTIONS TO VISIBILITY.

WYZ001-212200-
YELLOWSTONE NATIONAL PARK

CITY           SKY/WX    TMP DP  RH WIND       PRES   REMARKS
LK YELLOWSTONE   N/A     52  20  28 MISG      30.20S
W YELLOWSTONE  NOT AVBL

$$
WYZ002>013-054>058-071-098>099-212200-
NORTHERN WYOMING

CITY           SKY/WX    TMP DP  RH WIND       PRES   REMARKS
JACKSON        FAIR      59  25  27 NW7       30.15F
CODY           FAIR      66  26  22 CALM      30.03F
GREYBULL         N/A    N/A N/A N/A MISG      29.99F
WORLAND        FAIR      67  27  22 NW6       30.01F
SHERIDAN       FAIR      68  35  29 VRB5      30.01F
BUFFALO        FAIR      64  34  32 SE9       30.06S
GILLETTE       FAIR      56  38  50 S15       30.08F
HULETT         FAIR      55  34  44 SW12G17   30.11S
NEWCASTLE      FAIR      54  32  43 S10G17    30.14F

$$
WYZ014>020-022>026-101>103-212200-
CENTRAL WYOMING

CITY           SKY/WX    TMP DP  RH WIND       PRES   REMARKS
BIG PINEY      FAIR      62  19  19 NW15G28   30.16S
PINEDALE       FAIR      59  19  21 NW15G25   30.15S
DUBOIS         FAIR      59  19  21 NW15G25   30.13S
LANDER         FAIR      63  29  27 CALM      30.04F
RIVERTON       FAIR      63  29  27 E6        30.06F
CASPER         FAIR      58  39  49 VRB6      30.06F
DOUGLAS        FAIR      51  37  58 S7        30.11F

$$
WYZ021-027>030-104>119-212200-
SOUTHERN WYOMING

CITY           SKY/WX    TMP DP  RH WIND       PRES   REMARKS
EVANSTON       FAIR      61  22  22 NW16G22   30.20S
KEMMERER       FAIR      59  21  23 W16G24    30.18F
FORT BRIDGER   FAIR      65  17  16 NW13G21   30.20S
ROCK SPRINGS   FAIR      62  17  17 NW12G26   30.13S
DIXON          CLOUDY    53  32  46 SW6       30.18S
RAWLINS          N/A    N/A N/A N/A MISG      30.11F
SARATOGA       FAIR      52  36  54 E8        30.14F
LARAMIE        MIX PCPN  33  31  92 SW6       30.15F WCI  28
CHEYENNE       CLOUDY    42  33  70 CALM      30.15F
TORRINGTON     CLOUDY    43  39  86 SE8       30.16F
PINE BLUFFS    CLOUDY    41  32  70 MISG      30.18S

$$




USA.gov is the U.S. government's official web portal to all federal, state and local government web resources and services.